Change the Weather History Date:

Saturday, August 23, 2014

  Actual Average Record
Temperature  
Mean Temperature 74 °F 68 °F  
Max Temperature 81 °F 79 °F 98 °F (1948)
Min Temperature 67 °F 57 °F 44 °F (1984)
Degree Days  
Heating Degree Days 0 1  
Month to date heating degree days 2 12  
Since 1 June heating degree days 60 62  
Since 1 July heating degree days 29 21  
Cooling Degree Days 9 4  
Month to date cooling degree days 106 120  
Year to date cooling degree days 382 512  
Since 1 June cooling degree days 333 476  
Growing Degree Days 23 (Base 50)    
Moisture  
Dew Point 69 °F    
Average Humidity 87    
Maximum Humidity 100    
Minimum Humidity 74    
Precipitation  
Precipitation 0.79 in 0.10 in 0.87 in (2010)
Month to date precipitation 0.92 2.98  
Sea Level Pressure  
Sea Level Pressure 29.92 in    
Wind  
Wind Speed 10 mph (East)    
Max Wind Speed 21 mph    
Max Gust Speed 25 mph    
Visibility 7 miles    
Events Rain , Thunderstorm    
T = Trace of Precipitation, MM = Missing Value Source: NWS Daily Summary

Daily Weather History Graph

Daily Weather History Graph

Search for Another Location

Airport or City:

Trip Planner

Search our weather history database for the weather conditions in past years. The results will help you decide how hot, cold, wet, or windy it might be!

Date:

Astronomy

Aug. 23, 2014 Rise Set
Actual Time 6:33 AM CDT 8:09 PM CDT
Civil Twilight 6:02 AM CDT 8:39 PM CDT
Nautical Twilight 5:26 AM CDT 9:15 PM CDT
Astronomical Twilight 4:47 AM CDT 9:54 PM CDT
Moon 4:48 AM CDT (8/23) 6:54 PM CDT (8/23)
Length of Visible Light 14h 36m
Length of Day
13h 36m
Waning Crescent, 3% of the Moon is Illuminated
Aug 23
Waning Crescent
Aug 25
New
Sep 2
First Quarter
Sep 8
Full
Sep 15
Last Quarter

Hourly Weather History & Observations

Time (CDT) Temp. Heat Index Dew Point Humidity Pressure Visibility Wind Dir Wind Speed Gust Speed Precip Events Conditions
12:52 AM 70.0 °F - 69.1 °F 97% 29.97 in 7.0 mi East 8.1 mph - N/A   Mostly Cloudy
1:52 AM 70.0 °F - 69.1 °F 97% 29.96 in 5.0 mi East 6.9 mph - N/A   Partly Cloudy
2:52 AM 68.0 °F - 68.0 °F 100% 29.95 in 2.5 mi Calm Calm - N/A   Clear
3:52 AM 66.9 °F - 66.9 °F 100% 29.93 in 1.8 mi ENE 4.6 mph - N/A   Clear
4:52 AM 68.0 °F - 66.9 °F 96% 29.94 in 1.8 mi NNE 4.6 mph - N/A   Mostly Cloudy
5:05 AM 68.0 °F - 66.9 °F 96% 29.97 in 2.0 mi North 3.5 mph - N/A   Scattered Clouds
5:27 AM 68.0 °F - 68.0 °F 100% 29.96 in 2.0 mi NNE 6.9 mph - N/A Thunderstorm Mostly Cloudy
5:50 AM 68.0 °F - 68.0 °F 100% 29.96 in 2.5 mi NNE 3.5 mph - N/A Thunderstorm Overcast
5:52 AM 68.0 °F - 68.0 °F 100% 29.94 in 2.5 mi Calm Calm - N/A Thunderstorm Overcast
6:10 AM 68.0 °F - 68.0 °F 100% 30.00 in 1.0 mi WSW 13.8 mph 19.6 mph 0.12 in Rain , Thunderstorm Heavy Thunderstorms and Rain
6:21 AM 69.1 °F - 68.0 °F 96% 29.98 in 1.0 mi West 9.2 mph - 0.36 in Rain , Thunderstorm Heavy Thunderstorms and Rain
6:43 AM 68.0 °F - 68.0 °F 100% 29.97 in 2.0 mi North 6.9 mph - 0.71 in Rain , Thunderstorm Thunderstorms and Rain
6:52 AM 68.0 °F - 68.0 °F 100% 29.94 in 4.0 mi North 6.9 mph - 0.73 in Rain , Thunderstorm Thunderstorms and Rain
6:56 AM 68.0 °F - 68.0 °F 100% 29.96 in 5.0 mi North 8.1 mph - 0.01 in Rain , Thunderstorm Light Rain
7:09 AM 68.0 °F - 68.0 °F 100% 29.96 in 4.0 mi NNE 13.8 mph - 0.02 in Rain Light Rain
7:30 AM 68.0 °F - 68.0 °F 100% 29.94 in 2.0 mi NE 11.5 mph - 0.05 in Rain Light Rain
7:45 AM 68.0 °F - 68.0 °F 100% 29.94 in 5.0 mi NE 9.2 mph - 0.06 in Rain Light Rain
7:52 AM 68.0 °F - 68.0 °F 100% 29.91 in 7.0 mi NNE 12.7 mph - 0.06 in Rain Light Rain
8:03 AM 68.0 °F - 68.0 °F 100% 29.93 in 5.0 mi NE 11.5 mph - 0.00 in   Scattered Clouds
8:11 AM 68.0 °F - 68.0 °F 100% 29.94 in 6.0 mi NE 12.7 mph - 0.00 in   Mostly Cloudy
8:23 AM 69.1 °F - 68.0 °F 96% 29.94 in 6.0 mi NE 10.4 mph - 0.00 in   Scattered Clouds
8:32 AM 69.1 °F - 68.0 °F 96% 29.94 in 6.0 mi NE 9.2 mph - 0.00 in   Mostly Cloudy
8:38 AM 69.1 °F - 68.0 °F 96% 29.94 in 5.0 mi ENE 9.2 mph - 0.00 in   Scattered Clouds
8:52 AM 69.1 °F - 68.0 °F 96% 29.92 in 6.0 mi ENE 9.2 mph - 0.00 in   Mostly Cloudy
9:14 AM 69.1 °F - 68.0 °F 96% 29.93 in 10.0 mi East 15.0 mph 19.6 mph N/A   Scattered Clouds
9:27 AM 69.1 °F - 69.1 °F 100% 29.93 in 10.0 mi East 13.8 mph - N/A   Mostly Cloudy
9:34 AM 69.1 °F - 69.1 °F 100% 29.93 in 10.0 mi ESE 13.8 mph - N/A   Mostly Cloudy
10:06 AM 70.0 °F - 68.0 °F 93% 29.93 in 10.0 mi ESE 11.5 mph 23.0 mph N/A   Mostly Cloudy
10:20 AM 71.1 °F - 68.0 °F 90% 29.93 in 10.0 mi ESE 10.4 mph - N/A   Scattered Clouds
11:52 AM 75.9 °F - 70.0 °F 82% 29.89 in 10.0 mi SE 11.5 mph - N/A   Clear
12:52 PM 78.1 °F - 71.1 °F 79% 29.89 in 10.0 mi SE 9.2 mph - N/A   Clear
1:52 PM 79.0 °F - 72.0 °F 79% 29.88 in 10.0 mi SSE 12.7 mph - N/A   Clear
2:52 PM 79.0 °F - 72.0 °F 79% 29.88 in 10.0 mi SSE 9.2 mph - N/A   Clear
4:52 PM 80.1 °F 83.8 °F 72.0 °F 76% 29.86 in 10.0 mi ESE 12.7 mph - N/A   Clear
5:52 PM 80.1 °F 84.2 °F 73.0 °F 79% 29.83 in 10.0 mi ESE 15.0 mph 20.7 mph N/A   Clear
6:52 PM 77.0 °F - 71.1 °F 82% 29.84 in 10.0 mi SE 13.8 mph - N/A   Clear
7:52 PM 75.9 °F - 71.1 °F 85% 29.84 in 10.0 mi ESE 11.5 mph - N/A   Mostly Cloudy
8:52 PM 75.0 °F - 70.0 °F 84% 29.85 in 10.0 mi ESE 9.2 mph - N/A   Overcast
9:06 PM 73.9 °F - 70.0 °F 87% 29.87 in 10.0 mi ESE 10.4 mph - N/A   Overcast
9:34 PM 73.9 °F - 71.1 °F 91% 29.86 in 10.0 mi ESE 10.4 mph - N/A   Overcast
10:52 PM 73.0 °F - 71.1 °F 93% 29.84 in 10.0 mi SE 12.7 mph - N/A   Mostly Cloudy
11:24 PM 73.0 °F - 71.1 °F 93% 29.86 in 10.0 mi SE 15.0 mph - N/A   Overcast
11:52 PM 73.9 °F - 72.0 °F 93% 29.83 in 10.0 mi SE 12.7 mph - N/A   Overcast